Location: Springfield
(37.2150°N, 93.2980°W)
Time: 13:05:53
(UTC-05:00)

Envisat - Visible Passes

Search period start: 24 April 2018 00:00
Search period end: 04 May 2018 00:00
Orbit: 764 x 766 km, 98.2° (Epoch: 24 April)

Date Brightness Start Highest point End Pass type
(mag) Time Alt. Az. Time Alt. Az. Time Alt. Az.
24 Apr 3.0 20:33:55 10° SSE 20:38:59 84° ENE 20:44:05 10° N visible
25 Apr 5.2 21:37:29 10° SSW 21:41:28 23° W 21:45:29 10° NW visible
26 Apr 3.7 20:59:38 10° S 21:04:34 54° W 21:09:33 10° NNW visible
27 Apr 3.0 20:22:51 10° SSE 20:27:52 65° ENE 20:32:54 10° N visible
27 Apr 5.7 22:05:11 10° WSW 22:07:18 12° W 22:09:25 10° WNW visible
28 Apr 4.8 21:25:52 10° SSW 21:30:15 29° W 21:34:41 10° NW visible
29 Apr 3.3 20:48:22 10° S 20:53:25 70° WSW 20:58:30 10° NNW visible
30 Apr 5.6 21:52:54 10° SW 21:56:02 16° W 21:59:10 10° NW visible
01 May 4.4 21:14:22 10° SSW 21:19:03 38° W 21:23:46 10° NNW visible
02 May 3.1 20:37:11 10° SSE 20:42:16 89° WSW 20:47:22 10° NNW visible
03 May 5.3 21:41:00 10° SW 21:44:47 21° W 21:48:35 10° NW visible
